When you browse on this site, cookies collect data to enhance your experience and personalize the content and advertising you see.
Visit our Privacy Policy to learn more. By continuing to use the site, you agree to this use of cookies and data.
  • Em Portugal
  • Lista de países
  • Para 7 dias
  • Temperatura da água
  • Mapa do tempo
  • Widgets de tempo
  • user-avatar
    Iniciar Sessão

    Previsão horária em Tesnovka

    Hoje, 18 Setembro, Quarta-feira

    Tempo Temperatura Precipitação Vento Pressão Humidade
    00:00 +7°C° 0.2 mm 4 m/s 735 mmHg 90%
    01:00 +7°C° 0.2 mm 4 m/s 735 mmHg 90%
    02:00 +6°C° 0 mm 4 m/s 735 mmHg 92%
    03:00 +6°C° 1.4 mm 4 m/s 735 mmHg 91%
    04:00 +6°C° 1.4 mm 5 m/s 734 mmHg 91%
    05:00 +5°C° 1.4 mm 5 m/s 734 mmHg 91%
    06:00 +4°C° 0.2 mm 6 m/s 735 mmHg 90%
    07:00 +4°C° 0.2 mm 6 m/s 735 mmHg 88%
    08:00 +4°C° 0 mm 6 m/s 736 mmHg 88%
    09:00 +5°C° 0 mm 6 m/s 736 mmHg 85%
    10:00 +5°C° 0 mm 6 m/s 737 mmHg 83%
    11:00 +7°C° 0 mm 5 m/s 737 mmHg 80%
    12:00 +7°C° 0.1 mm 6 m/s 738 mmHg 79%
    13:00 +8°C° 0.1 mm 6 m/s 738 mmHg 77%
    14:00 +8°C° 0.1 mm 7 m/s 739 mmHg 76%
    15:00 +9°C° 0.1 mm 6 m/s 739 mmHg 75%
    16:00 +9°C° 0.1 mm 5 m/s 740 mmHg 74%
    17:00 +10°C° 0.1 mm 5 m/s 741 mmHg 72%
    18:00 +9°C° 0.4 mm 5 m/s 741 mmHg 78%
    19:00 +8°C° 0.4 mm 5 m/s 742 mmHg 84%
    20:00 +7°C° 0.4 mm 6 m/s 742 mmHg 89%
    21:00 +7°C° 0.2 mm 5 m/s 742 mmHg 90%
    22:00 +7°C° 0.2 mm 5 m/s 743 mmHg 91%
    23:00 +7°C° 0.2 mm 5 m/s 743 mmHg 92%

    Amanhã, 19 Setembro, Quinta-feira

    Tempo Temperatura Precipitação Vento Pressão Humidade
    00:00 +7°C° 0 mm 5 m/s 743 mmHg 91%
    01:00 +7°C° 0 mm 5 m/s 744 mmHg 91%
    02:00 +7°C° 0 mm 5 m/s 744 mmHg 90%
    03:00 +7°C° 0 mm 5 m/s 744 mmHg 90%
    04:00 +7°C° 0 mm 5 m/s 744 mmHg 90%
    05:00 +6°C° 0 mm 5 m/s 745 mmHg 90%
    06:00 +6°C° 0 mm 5 m/s 745 mmHg 90%
    07:00 +6°C° 0 mm 5 m/s 745 mmHg 89%
    08:00 +7°C° 0 mm 5 m/s 746 mmHg 88%
    09:00 +7°C° 0 mm 5 m/s 746 mmHg 86%
    10:00 +8°C° 0 mm 5 m/s 746 mmHg 83%
    11:00 +8°C° 0 mm 4 m/s 747 mmHg 80%
    12:00 +8°C° 0 mm 4 m/s 747 mmHg 77%
    13:00 +10°C° 0 mm 4 m/s 747 mmHg 74%
    14:00 +10°C° 0 mm 4 m/s 747 mmHg 72%
    15:00 +11°C° 0 mm 3 m/s 747 mmHg 70%
    16:00 +11°C° 0 mm 3 m/s 747 mmHg 69%
    17:00 +12°C° 0 mm 2 m/s 747 mmHg 68%
    18:00 +10°C° 0 mm 2 m/s 747 mmHg 74%
    19:00 +9°C° 0 mm 2 m/s 747 mmHg 80%
    20:00 +7°C° 0 mm 2 m/s 747 mmHg 85%
    21:00 +7°C° 0 mm 3 m/s 747 mmHg 87%
    22:00 +7°C° 0 mm 3 m/s 747 mmHg 89%
    23:00 +7°C° 0 mm 3 m/s 748 mmHg 91%

    Depois de amanhã, 20 Setembro, Sexta-feira

    Tempo Temperatura Precipitação Vento Pressão Humidade
    00:00 +5°C° 0 mm 3 m/s 747 mmHg 93%
    01:00 +5°C° 0 mm 4 m/s 747 mmHg 94%
    02:00 +5°C° 0 mm 4 m/s 747 mmHg 95%
    03:00 +5°C° 0 mm 4 m/s 747 mmHg 92%
    04:00 +5°C° 0 mm 5 m/s 748 mmHg 89%
    05:00 +6°C° 0 mm 5 m/s 748 mmHg 87%
    06:00 +6°C° 0 mm 5 m/s 748 mmHg 87%
    07:00 +4°C° 0 mm 6 m/s 748 mmHg 87%
    08:00 +4°C° 0 mm 6 m/s 748 mmHg 87%
    09:00 +5°C° 0 mm 6 m/s 749 mmHg 82%
    10:00 +7°C° 0 mm 6 m/s 749 mmHg 76%
    11:00 +7°C° 0 mm 5 m/s 750 mmHg 71%
    12:00 +8°C° 0.1 mm 6 m/s 750 mmHg 65%
    13:00 +9°C° 0.1 mm 6 m/s 750 mmHg 60%
    14:00 +10°C° 0.1 mm 6 m/s 750 mmHg 54%
    15:00 +10°C° 0 mm 5 m/s 750 mmHg 56%
    16:00 +9°C° 0 mm 5 m/s 750 mmHg 58%
    17:00 +10°C° 0 mm 4 m/s 750 mmHg 59%
    18:00 +7°C° 0 mm 4 m/s 750 mmHg 66%
    19:00 +7°C° 0 mm 3 m/s 751 mmHg 72%
    20:00 +4°C° 0 mm 3 m/s 751 mmHg 78%
    21:00 +5°C° 0 mm 2 m/s 751 mmHg 80%
    22:00 +4°C° 0 mm 2 m/s 751 mmHg 82%
    23:00 +4°C° 0 mm 2 m/s 752 mmHg 84%

    21 Setembro, Sábado

    Tempo Temperatura Precipitação Vento Pressão Humidade
    00:00 +4°C° 0 mm 2 m/s 752 mmHg 84%
    01:00 +4°C° 0 mm 2 m/s 752 mmHg 84%
    02:00 +3°C° 0 mm 2 m/s 752 mmHg 85%
    03:00 +4°C° 0 mm 2 m/s 751 mmHg 83%
    04:00 +3°C° 0 mm 3 m/s 751 mmHg 81%
    05:00 +3°C° 0 mm 3 m/s 751 mmHg 80%
    06:00 +4°C° 0 mm 3 m/s 751 mmHg 77%
    07:00 +5°C° 0 mm 4 m/s 750 mmHg 75%
    08:00 +6°C° 0 mm 4 m/s 750 mmHg 73%
    09:00 +6°C° 0.1 mm 5 m/s 750 mmHg 76%
    10:00 +7°C° 0.1 mm 5 m/s 750 mmHg 78%
    11:00 +7°C° 0.1 mm 6 m/s 750 mmHg 80%
    12:00 +8°C° 0.1 mm 6 m/s 749 mmHg 81%
    13:00 +9°C° 0.1 mm 6 m/s 749 mmHg 82%
    14:00 +10°C° 0.1 mm 6 m/s 749 mmHg 84%
    15:00 +11°C° 0 mm 6 m/s 749 mmHg 83%
    16:00 +11°C° 0 mm 6 m/s 748 mmHg 82%
    17:00 +12°C° 0 mm 5 m/s 748 mmHg 82%
    18:00 +12°C° 0 mm 5 m/s 748 mmHg 83%
    19:00 +10°C° 0 mm 5 m/s 748 mmHg 84%
    20:00 +11°C° 0 mm 4 m/s 748 mmHg 86%
    21:00 +11°C° 0 mm 4 m/s 748 mmHg 87%
    22:00 +10°C° 0 mm 4 m/s 748 mmHg 88%
    23:00 +9°C° 0 mm 5 m/s 748 mmHg 89%

    22 Setembro, Domingo

    Tempo Temperatura Precipitação Vento Pressão Humidade
    00:00 +9°C° 0 mm 5 m/s 748 mmHg 91%
    01:00 +9°C° 0 mm 5 m/s 748 mmHg 92%
    02:00 +8°C° 0 mm 5 m/s 747 mmHg 94%
    03:00 +9°C° 0 mm 5 m/s 747 mmHg 93%
    04:00 +9°C° 0 mm 5 m/s 747 mmHg 93%
    05:00 +9°C° 0 mm 5 m/s 747 mmHg 92%
    06:00 +9°C° 0 mm 5 m/s 747 mmHg 90%
    07:00 +10°C° 0 mm 5 m/s 747 mmHg 87%
    08:00 +10°C° 0 mm 5 m/s 747 mmHg 85%
    09:00 +12°C° 0 mm 5 m/s 748 mmHg 83%
    10:00 +13°C° 0 mm 5 m/s 748 mmHg 80%
    11:00 +13°C° 0 mm 5 m/s 748 mmHg 78%
    12:00 +13°C° 0 mm 4 m/s 748 mmHg 77%
    13:00 +14°C° 0 mm 4 m/s 748 mmHg 76%
    14:00 +14°C° 0 mm 3 m/s 748 mmHg 75%
    15:00 +14°C° 0 mm 3 m/s 748 mmHg 75%
    16:00 +15°C° 0 mm 2 m/s 748 mmHg 74%
    17:00 +15°C° 0 mm 2 m/s 748 mmHg 74%
    18:00 +13°C° 0 mm 2 m/s 748 mmHg 77%
    19:00 +12°C° 0 mm 1 m/s 748 mmHg 80%
    20:00 +10°C° 0 mm 1 m/s 748 mmHg 83%
    21:00 +9°C° 0 mm 2 m/s 748 mmHg 79%
    22:00 +8°C° 0 mm 2 m/s 748 mmHg 75%
    23:00 +7°C° 0 mm 3 m/s 748 mmHg 71%

    23 Setembro, Segunda-feira

    Tempo Temperatura Precipitação Vento Pressão Humidade
    00:00 +7°C° 0 mm 3 m/s 748 mmHg 71%
    01:00 +5°C° 0 mm 3 m/s 748 mmHg 71%
    02:00 +5°C° 0 mm 3 m/s 748 mmHg 71%
    03:00 +5°C° 0 mm 3 m/s 747 mmHg 74%
    04:00 +5°C° 0 mm 3 m/s 747 mmHg 76%
    05:00 +5°C° 0 mm 4 m/s 746 mmHg 78%
    06:00 +6°C° 0 mm 4 m/s 745 mmHg 79%
    07:00 +6°C° 0 mm 4 m/s 745 mmHg 80%
    08:00 +7°C° 0 mm 5 m/s 744 mmHg 81%
    09:00 +9°C° 0 mm 5 m/s 744 mmHg 77%
    10:00 +12°C° 0 mm 5 m/s 743 mmHg 74%
    11:00 +13°C° 0 mm 5 m/s 743 mmHg 70%
    12:00 +14°C° 0 mm 4 m/s 742 mmHg 70%
    13:00 +14°C° 0 mm 4 m/s 741 mmHg 70%
    14:00 +14°C° 0 mm 4 m/s 740 mmHg 69%
    15:00 +14°C° 0 mm 4 m/s 740 mmHg 70%
    16:00 +14°C° 0 mm 3 m/s 740 mmHg 70%
    17:00 +14°C° 0 mm 3 m/s 739 mmHg 70%
    18:00 +13°C° 0 mm 2 m/s 739 mmHg 73%
    19:00 +12°C° 0 mm 2 m/s 738 mmHg 76%
    20:00 +11°C° 0 mm 1 m/s 738 mmHg 80%
    21:00 +10°C° 0 mm 1 m/s 738 mmHg 82%
    22:00 +10°C° 0 mm 1 m/s 738 mmHg 84%
    23:00 +10°C° 0 mm 1 m/s 738 mmHg 86%
    Mostrar mais